date,time,SUV Intensity [MED/Hr],UV Index,Daily total [MED],Since Last [MED]
07/09/2023,00:00:59,0.001,0.0,0.0,0.0
07/09/2023,00:01:59,0.000,0.0,0.0,0.0
07/09/2023,00:02:59,0.001,0.0,0.0,0.0
07/09/2023,00:03:59,0.000,0.0,0.0,0.0
07/09/2023,00:04:59,0.000,0.0,0.0,0.0
07/09/2023,00:05:59,-0.001,0.0,0.0,0.0
07/09/2023,00:07:00,0.001,0.0,0.0,0.0
07/09/2023,00:08:00,0.001,0.0,0.0,0.0
07/09/2023,00:08:59,-0.001,0.0,0.0,0.0
07/09/2023,00:09:59,-0.001,0.0,0.0,0.0
07/09/2023,00:10:59,0.002,0.0,0.0,0.0
07/09/2023,00:11:59,0.000,0.0,0.0,0.0
07/09/2023,00:12:59,0.000,0.0,0.0,0.0
07/09/2023,00:13:59,0.000,0.0,0.0,0.0
07/09/2023,00:14:59,-0.000,0.0,0.0,0.0
07/09/2023,00:15:59,0.000,0.0,0.0,0.0
07/09/2023,00:16:59,-0.001,0.0,0.0,0.0
07/09/2023,00:17:59,-0.000,0.0,0.0,0.0
07/09/2023,00:19:00,0.000,0.0,0.0,0.0
07/09/2023,00:19:59,0.000,0.0,0.0,0.0
07/09/2023,00:20:59,-0.001,0.0,0.0,0.0
07/09/2023,00:21:59,0.000,0.0,0.0,0.0
07/09/2023,00:22:59,0.001,0.0,0.0,0.0
07/09/2023,00:23:59,-0.000,0.0,0.0,0.0
07/09/2023,00:24:59,-0.000,0.0,0.0,0.0
07/09/2023,00:25:59,0.000,0.0,0.0,0.0
07/09/2023,00:26:59,-0.000,0.0,0.0,0.0
07/09/2023,00:27:59,0.000,0.0,0.0,0.0
07/09/2023,00:28:59,0.000,0.0,0.0,0.0
07/09/2023,00:29:59,-0.000,0.0,0.0,0.0
07/09/2023,00:30:59,-0.001,0.0,0.0,0.0
07/09/2023,00:31:59,0.001,0.0,0.0,0.0
07/09/2023,00:32:59,0.000,0.0,0.0,0.0
07/09/2023,00:33:59,-0.001,0.0,0.0,0.0
07/09/2023,00:34:59,0.001,0.0,0.0,0.0
07/09/2023,00:35:59,0.000,0.0,0.0,0.0
07/09/2023,00:36:59,-0.001,0.0,0.0,0.0
07/09/2023,00:37:59,-0.001,0.0,0.0,0.0
07/09/2023,00:38:59,0.001,0.0,0.0,0.0
07/09/2023,00:39:59,-0.001,0.0,0.0,0.0
07/09/2023,00:40:59,0.000,0.0,0.0,0.0
07/09/2023,00:41:59,0.001,0.0,0.0,0.0
07/09/2023,00:42:59,0.001,0.0,0.0,0.0
07/09/2023,00:43:59,0.000,0.0,0.0,0.0
07/09/2023,00:44:59,0.000,0.0,0.0,0.0
07/09/2023,00:46:00,-0.000,0.0,0.0,0.0
07/09/2023,00:46:58,0.000,0.0,0.0,0.0
07/09/2023,00:47:59,0.000,0.0,0.0,0.0
07/09/2023,00:48:59,0.000,0.0,0.0,0.0
07/09/2023,00:49:59,0.002,0.0,0.0,0.0
07/09/2023,00:51:00,0.000,0.0,0.0,0.0
07/09/2023,00:51:59,0.000,0.0,0.0,0.0
07/09/2023,00:52:59,0.000,0.0,0.0,0.0
07/09/2023,00:53:57,0.001,0.0,0.0,0.0
07/09/2023,00:54:57,0.000,0.0,0.0,0.0
07/09/2023,00:55:59,-0.001,0.0,0.0,0.0
07/09/2023,00:56:59,0.001,0.0,0.0,0.0
07/09/2023,00:58:00,0.001,0.0,0.0,0.0
07/09/2023,00:58:59,-0.001,0.0,0.0,0.0
07/09/2023,00:59:59,0.000,0.0,0.0,0.0
07/09/2023,01:00:59,0.000,0.0,0.0,0.0
07/09/2023,01:01:59,0.000,0.0,0.0,0.0
07/09/2023,01:02:59,0.000,0.0,0.0,0.0
07/09/2023,01:03:58,0.001,0.0,0.0,0.0
07/09/2023,01:04:57,0.001,0.0,0.0,0.0
07/09/2023,01:05:59,-0.001,0.0,0.0,0.0
07/09/2023,01:06:59,0.000,0.0,0.0,0.0
07/09/2023,01:07:59,-0.001,0.0,0.0,0.0
07/09/2023,01:09:00,0.000,0.0,0.0,0.0
07/09/2023,01:10:00,0.001,0.0,0.0,0.0
07/09/2023,01:10:59,0.001,0.0,0.0,0.0
07/09/2023,01:12:00,0.001,0.0,0.0,0.0
07/09/2023,01:13:00,0.001,0.0,0.0,0.0
07/09/2023,01:13:59,0.000,0.0,0.0,0.0
07/09/2023,01:14:59,0.000,0.0,0.0,0.0
07/09/2023,01:15:59,-0.000,0.0,0.0,0.0
07/09/2023,01:16:59,0.000,0.0,0.0,0.0
07/09/2023,01:17:59,0.001,0.0,0.0,0.0
07/09/2023,01:18:59,0.002,0.0,0.0,0.0
07/09/2023,01:19:59,0.000,0.0,0.0,0.0
07/09/2023,01:20:59,0.001,0.0,0.0,0.0
07/09/2023,01:21:59,0.000,0.0,0.0,0.0
07/09/2023,01:22:59,0.000,0.0,0.0,0.0
07/09/2023,01:23:59,0.000,0.0,0.0,0.0
07/09/2023,01:25:00,-0.000,0.0,0.0,0.0
07/09/2023,01:25:59,0.000,0.0,0.0,0.0
07/09/2023,01:26:59,0.002,0.0,0.0,0.0
07/09/2023,01:27:59,0.001,0.0,0.0,0.0
07/09/2023,01:28:57,0.000,0.0,0.0,0.0
07/09/2023,01:29:58,0.000,0.0,0.0,0.0
07/09/2023,01:30:59,0.001,0.0,0.0,0.0
07/09/2023,01:31:59,0.000,0.0,0.0,0.0
07/09/2023,01:32:59,0.001,0.0,0.0,0.0
07/09/2023,01:33:59,0.001,0.0,0.0,0.0
07/09/2023,01:34:59,0.000,0.0,0.0,0.0
07/09/2023,01:35:59,0.001,0.0,0.0,0.0
07/09/2023,01:36:59,0.001,0.0,0.0,0.0
07/09/2023,01:37:59,0.001,0.0,0.0,0.0
07/09/2023,01:38:59,-0.000,0.0,0.0,0.0
07/09/2023,01:39:59,0.001,0.0,0.0,0.0
07/09/2023,01:40:59,0.001,0.0,0.0,0.0
07/09/2023,01:42:00,-0.000,0.0,0.0,0.0
07/09/2023,01:42:59,0.000,0.0,0.0,0.0
07/09/2023,01:43:59,0.001,0.0,0.0,0.0
07/09/2023,01:45:00,0.001,0.0,0.0,0.0
07/09/2023,01:45:59,0.001,0.0,0.0,0.0
07/09/2023,01:46:59,0.002,0.0,0.0,0.0
07/09/2023,01:47:59,-0.000,0.0,0.0,0.0
07/09/2023,01:48:59,0.001,0.0,0.0,0.0
07/09/2023,01:49:57,0.001,0.0,0.0,0.0
07/09/2023,01:50:57,0.001,0.0,0.0,0.0
07/09/2023,01:51:59,0.000,0.0,0.0,0.0
07/09/2023,01:53:00,0.001,0.0,0.0,0.0
07/09/2023,01:53:59,0.001,0.0,0.0,0.0
07/09/2023,01:54:59,0.001,0.0,0.0,0.0
07/09/2023,01:55:59,0.000,0.0,0.0,0.0
07/09/2023,01:57:00,0.001,0.0,0.0,0.0
07/09/2023,01:57:59,0.001,0.0,0.0,0.0
07/09/2023,01:58:59,0.001,0.0,0.0,0.0
07/09/2023,02:00:00,0.001,0.0,0.0,0.0
07/09/2023,02:00:59,0.001,0.0,0.0,0.0
07/09/2023,02:02:00,0.000,0.0,0.0,0.0
07/09/2023,02:02:59,0.001,0.0,0.0,0.0
07/09/2023,02:03:59,0.001,0.0,0.0,0.0
07/09/2023,02:05:00,-0.000,0.0,0.0,0.0
07/09/2023,02:05:59,0.001,0.0,0.0,0.0
07/09/2023,02:06:59,0.001,0.0,0.0,0.0
07/09/2023,02:07:59,0.001,0.0,0.0,0.0
07/09/2023,02:08:59,0.002,0.0,0.0,0.0
07/09/2023,02:09:59,0.001,0.0,0.0,0.0
07/09/2023,02:10:59,0.001,0.0,0.0,0.0
07/09/2023,02:11:59,0.001,0.0,0.0,0.0
07/09/2023,02:12:59,0.002,0.0,0.0,0.0
07/09/2023,02:13:59,0.001,0.0,0.0,0.0
07/09/2023,02:14:59,0.001,0.0,0.0,0.0
07/09/2023,02:15:59,0.001,0.0,0.0,0.0
07/09/2023,02:16:59,0.001,0.0,0.0,0.0
07/09/2023,02:17:59,0.001,0.0,0.0,0.0
07/09/2023,02:18:59,0.000,0.0,0.0,0.0
07/09/2023,02:19:59,0.001,0.0,0.0,0.0
07/09/2023,02:20:59,0.002,0.0,0.0,0.0
07/09/2023,02:21:59,0.000,0.0,0.0,0.0
07/09/2023,02:23:00,0.000,0.0,0.0,0.0
07/09/2023,02:23:59,0.001,0.0,0.0,0.0
07/09/2023,02:24:59,0.002,0.0,0.0,0.0
07/09/2023,02:25:58,0.001,0.0,0.0,0.0
07/09/2023,02:26:57,0.001,0.0,0.0,0.0
07/09/2023,02:27:59,0.001,0.0,0.0,0.0
07/09/2023,02:28:59,0.001,0.0,0.0,0.0
07/09/2023,02:29:59,0.001,0.0,0.0,0.0
07/09/2023,02:30:59,0.001,0.0,0.0,0.0
07/09/2023,02:31:59,0.001,0.0,0.0,0.0
07/09/2023,02:32:57,0.001,0.0,0.0,0.0
07/09/2023,02:33:57,0.001,0.0,0.0,0.0
07/09/2023,02:34:59,0.001,0.0,0.0,0.0
07/09/2023,02:35:59,0.001,0.0,0.0,0.0
07/09/2023,02:37:00,0.001,0.0,0.0,0.0
07/09/2023,02:37:59,0.001,0.0,0.0,0.0
07/09/2023,02:38:59,0.002,0.0,0.0,0.0
07/09/2023,02:39:59,0.000,0.0,0.0,0.0
07/09/2023,02:40:59,0.000,0.0,0.0,0.0
07/09/2023,02:41:59,0.001,0.0,0.0,0.0
07/09/2023,02:42:59,0.001,0.0,0.0,0.0
07/09/2023,02:44:00,0.002,0.0,0.0,0.0
07/09/2023,02:44:59,0.001,0.0,0.0,0.0
07/09/2023,02:46:00,0.001,0.0,0.0,0.0
07/09/2023,02:46:59,0.001,0.0,0.0,0.0
07/09/2023,02:47:59,0.001,0.0,0.0,0.0
07/09/2023,02:48:59,0.001,0.0,0.0,0.0
07/09/2023,02:50:00,0.001,0.0,0.0,0.0
07/09/2023,02:50:59,0.001,0.0,0.0,0.0
07/09/2023,02:52:00,0.001,0.0,0.0,0.0
07/09/2023,02:52:59,0.000,0.0,0.0,0.0
07/09/2023,02:53:59,0.002,0.0,0.0,0.0
07/09/2023,02:54:59,0.001,0.0,0.0,0.0
07/09/2023,02:56:00,0.002,0.0,0.0,0.0
07/09/2023,02:56:59,0.001,0.0,0.0,0.0
07/09/2023,02:58:00,0.001,0.0,0.0,0.0
07/09/2023,02:58:59,0.001,0.0,0.0,0.0
07/09/2023,02:59:59,0.001,0.0,0.0,0.0
07/09/2023,03:01:00,0.002,0.0,0.0,0.0
07/09/2023,03:01:59,0.001,0.0,0.0,0.0
07/09/2023,03:02:59,0.001,0.0,0.0,0.0
07/09/2023,03:04:00,0.002,0.0,0.0,0.0
07/09/2023,03:04:59,0.001,0.0,0.0,0.0
07/09/2023,03:06:00,0.002,0.0,0.0,0.0
07/09/2023,03:07:00,0.001,0.0,0.0,0.0
07/09/2023,03:08:00,0.000,0.0,0.0,0.0
07/09/2023,03:09:00,0.001,0.0,0.0,0.0
07/09/2023,03:09:59,0.001,0.0,0.0,0.0
07/09/2023,03:10:59,0.001,0.0,0.0,0.0
07/09/2023,03:11:59,0.002,0.0,0.0,0.0
07/09/2023,03:12:59,0.001,0.0,0.0,0.0
07/09/2023,03:14:00,0.001,0.0,0.0,0.0
07/09/2023,03:14:59,0.001,0.0,0.0,0.0
07/09/2023,03:15:57,0.001,0.0,0.0,0.0
07/09/2023,03:16:57,0.001,0.0,0.0,0.0
07/09/2023,03:18:00,0.000,0.0,0.0,0.0
07/09/2023,03:18:59,0.002,0.0,0.0,0.0
07/09/2023,03:19:59,0.001,0.0,0.0,0.0
07/09/2023,03:20:59,0.002,0.0,0.0,0.0
07/09/2023,03:21:59,0.001,0.0,0.0,0.0
07/09/2023,03:22:59,0.001,0.0,0.0,0.0
07/09/2023,03:23:57,0.001,0.0,0.0,0.0
07/09/2023,03:24:57,0.001,0.0,0.0,0.0
07/09/2023,03:26:00,0.002,0.0,0.0,0.0
07/09/2023,03:26:59,0.002,0.0,0.0,0.0
07/09/2023,03:28:00,0.001,0.0,0.0,0.0
07/09/2023,03:28:59,0.000,0.0,0.0,0.0
07/09/2023,03:29:59,0.001,0.0,0.0,0.0
07/09/2023,03:31:00,0.001,0.0,0.0,0.0
07/09/2023,03:31:59,0.001,0.0,0.0,0.0
07/09/2023,03:33:00,0.002,0.0,0.0,0.0
07/09/2023,03:34:00,0.002,0.0,0.0,0.0
07/09/2023,03:34:59,0.002,0.0,0.0,0.0
07/09/2023,03:35:59,0.000,0.0,0.0,0.0
07/09/2023,03:37:00,0.000,0.0,0.0,0.0
07/09/2023,03:38:00,0.001,0.0,0.0,0.0
07/09/2023,03:39:00,0.002,0.0,0.0,0.0
07/09/2023,03:39:59,0.000,0.0,0.0,0.0
07/09/2023,03:40:59,0.002,0.0,0.0,0.0
07/09/2023,03:42:00,0.002,0.0,0.0,0.0
07/09/2023,03:43:00,0.001,0.0,0.0,0.0
07/09/2023,03:44:00,0.000,0.0,0.0,0.0
07/09/2023,03:44:59,0.001,0.0,0.0,0.0
07/09/2023,03:45:59,0.001,0.0,0.0,0.0
07/09/2023,03:47:00,0.001,0.0,0.0,0.0
07/09/2023,03:47:59,0.001,0.0,0.0,0.0
07/09/2023,03:48:59,0.000,0.0,0.0,0.0
07/09/2023,03:50:00,0.001,0.0,0.0,0.0
07/09/2023,03:50:59,0.001,0.0,0.0,0.0
07/09/2023,03:51:59,0.001,0.0,0.0,0.0
07/09/2023,03:53:00,0.001,0.0,0.0,0.0
07/09/2023,03:53:59,0.001,0.0,0.0,0.0
07/09/2023,03:54:57,0.001,0.0,0.0,0.0
07/09/2023,03:55:58,0.001,0.0,0.0,0.0
07/09/2023,03:56:59,0.002,0.0,0.0,0.0
07/09/2023,03:58:00,0.001,0.0,0.0,0.0
07/09/2023,03:58:59,0.001,0.0,0.0,0.0
07/09/2023,03:59:59,0.001,0.0,0.0,0.0
07/09/2023,04:00:59,0.001,0.0,0.0,0.0
07/09/2023,04:01:59,0.001,0.0,0.0,0.0
07/09/2023,04:02:59,0.002,0.0,0.0,0.0
07/09/2023,04:03:59,0.002,0.0,0.0,0.0
07/09/2023,04:04:59,0.001,0.0,0.0,0.0
07/09/2023,04:05:59,0.001,0.0,0.0,0.0
07/09/2023,04:06:59,0.001,0.0,0.0,0.0
07/09/2023,04:07:59,0.001,0.0,0.0,0.0
07/09/2023,04:09:00,0.001,0.0,0.0,0.0
07/09/2023,04:09:59,0.002,0.0,0.0,0.0
07/09/2023,04:10:59,0.001,0.0,0.0,0.0
07/09/2023,04:12:00,0.001,0.0,0.0,0.0
07/09/2023,04:12:59,0.001,0.0,0.0,0.0
07/09/2023,04:13:59,0.001,0.0,0.0,0.0
07/09/2023,04:15:00,0.001,0.0,0.0,0.0
07/09/2023,04:15:57,0.001,0.0,0.0,0.0
07/09/2023,04:16:57,0.001,0.0,0.0,0.0
07/09/2023,04:17:59,0.002,0.0,0.0,0.0
07/09/2023,04:19:00,0.002,0.0,0.0,0.0
07/09/2023,04:19:59,0.001,0.0,0.0,0.0
07/09/2023,04:20:59,0.001,0.0,0.0,0.0
07/09/2023,04:22:00,0.002,0.0,0.0,0.0
07/09/2023,04:22:59,0.001,0.0,0.0,0.0
07/09/2023,04:23:59,0.001,0.0,0.0,0.0
07/09/2023,04:25:00,0.002,0.0,0.0,0.0
07/09/2023,04:25:59,0.000,0.0,0.0,0.0
07/09/2023,04:27:00,0.001,0.0,0.0,0.0
07/09/2023,04:27:59,0.001,0.0,0.0,0.0
07/09/2023,04:29:00,0.001,0.0,0.0,0.0
07/09/2023,04:29:59,0.001,0.0,0.0,0.0
07/09/2023,04:30:59,0.002,0.0,0.0,0.0
07/09/2023,04:32:00,0.001,0.0,0.0,0.0
07/09/2023,04:33:00,0.001,0.0,0.0,0.0
07/09/2023,04:33:59,0.001,0.0,0.0,0.0
07/09/2023,04:34:59,0.001,0.0,0.0,0.0
07/09/2023,04:36:00,0.001,0.0,0.0,0.0
07/09/2023,04:36:59,0.001,0.0,0.0,0.0
07/09/2023,04:38:00,0.001,0.0,0.0,0.0
07/09/2023,04:38:59,0.001,0.0,0.0,0.0
07/09/2023,04:39:59,0.001,0.0,0.0,0.0
07/09/2023,04:41:00,0.002,0.0,0.0,0.0
07/09/2023,04:42:00,0.002,0.0,0.0,0.0
07/09/2023,04:43:01,0.002,0.0,0.0,0.0
07/09/2023,04:44:00,0.001,0.0,0.0,0.0
07/09/2023,04:44:59,0.001,0.0,0.0,0.0
07/09/2023,04:45:59,0.002,0.0,0.0,0.0
07/09/2023,04:47:00,0.001,0.0,0.0,0.0
07/09/2023,04:47:59,0.000,0.0,0.0,0.0
07/09/2023,04:48:59,0.002,0.0,0.0,0.0
07/09/2023,04:49:59,0.002,0.0,0.0,0.0
07/09/2023,04:51:00,0.001,0.0,0.0,0.0
07/09/2023,04:51:59,0.001,0.0,0.0,0.0
07/09/2023,04:53:00,0.002,0.0,0.0,0.0
07/09/2023,04:54:01,0.001,0.0,0.0,0.0
07/09/2023,04:54:59,0.001,0.0,0.0,0.0
07/09/2023,04:55:59,0.001,0.0,0.0,0.0
07/09/2023,04:57:00,0.001,0.0,0.0,0.0
07/09/2023,04:58:00,0.001,0.0,0.0,0.0
07/09/2023,04:58:59,0.001,0.0,0.0,0.0
07/09/2023,05:00:00,0.002,0.0,0.0,0.0
07/09/2023,05:01:00,0.002,0.0,0.0,0.0
07/09/2023,05:01:59,0.002,0.0,0.0,0.0
07/09/2023,05:03:00,0.002,0.0,0.0,0.0
07/09/2023,05:03:59,0.001,0.0,0.0,0.0
07/09/2023,05:05:00,0.002,0.0,0.0,0.0
07/09/2023,05:06:01,0.001,0.0,0.0,0.0
07/09/2023,05:07:00,0.002,0.0,0.0,0.0
07/09/2023,05:07:59,0.002,0.0,0.0,0.0
07/09/2023,05:08:59,0.002,0.0,0.0,0.0
07/09/2023,05:10:00,0.002,0.0,0.0,0.0
07/09/2023,05:11:00,0.002,0.0,0.0,0.0
07/09/2023,05:12:00,0.002,0.0,0.0,0.0
07/09/2023,05:12:59,0.002,0.0,0.0,0.0
07/09/2023,05:13:59,0.002,0.0,0.0,0.0
07/09/2023,05:15:00,0.003,0.0,0.0,0.0
07/09/2023,05:15:59,0.002,0.0,0.0,0.0
07/09/2023,05:17:00,0.002,0.0,0.0,0.0
07/09/2023,05:17:59,0.002,0.0,0.0,0.0
07/09/2023,05:18:59,0.002,0.0,0.0,0.0
07/09/2023,05:20:00,0.002,0.0,0.0,0.0
07/09/2023,05:20:59,0.003,0.0,0.0,0.0
07/09/2023,05:22:00,0.004,0.0,0.0,0.0
07/09/2023,05:22:59,0.003,0.0,0.0,0.0
07/09/2023,05:23:59,0.002,0.0,0.0,0.0
07/09/2023,05:25:00,0.003,0.0,0.0,0.0
07/09/2023,05:25:59,0.003,0.0,0.0,0.0
07/09/2023,05:26:59,0.005,0.0,0.0,0.0
07/09/2023,05:28:00,0.003,0.0,0.0,0.0
07/09/2023,05:28:59,0.004,0.0,0.0,0.0
07/09/2023,05:30:00,0.004,0.0,0.0,0.0
07/09/2023,05:30:59,0.004,0.0,0.0,0.0
07/09/2023,05:32:00,0.004,0.0,0.0,0.0
07/09/2023,05:32:59,0.005,0.0,0.0,0.0
07/09/2023,05:33:59,0.005,0.0,0.0,0.0
07/09/2023,05:34:59,0.004,0.0,0.0,0.0
07/09/2023,05:36:00,0.005,0.0,0.0,0.0
07/09/2023,05:37:01,0.007,0.0,0.0,0.0
07/09/2023,05:37:59,0.006,0.0,0.0,0.0
07/09/2023,05:39:00,0.006,0.0,0.0,0.0
07/09/2023,05:39:59,0.005,0.0,0.0,0.0
07/09/2023,05:40:59,0.008,0.0,0.0,0.0
07/09/2023,05:42:00,0.007,0.0,0.0,0.0
07/09/2023,05:43:00,0.007,0.0,0.001,0.001
07/09/2023,05:43:59,0.008,0.0,0.001,0.0
07/09/2023,05:45:00,0.008,0.0,0.001,0.0
07/09/2023,05:45:59,0.009,0.0,0.001,0.0
07/09/2023,05:47:00,0.008,0.0,0.001,0.0
07/09/2023,05:47:59,0.010,0.0,0.001,0.0
07/09/2023,05:48:59,0.010,0.0,0.001,0.0
07/09/2023,05:49:59,0.010,0.0,0.002,0.001
07/09/2023,05:50:58,0.011,0.0,0.002,0.0
07/09/2023,05:51:58,0.011,0.0,0.002,0.0
07/09/2023,05:53:00,0.012,0.0,0.002,0.0
07/09/2023,05:53:59,0.012,0.0,0.002,0.0
07/09/2023,05:54:59,0.013,0.0,0.003,0.001
07/09/2023,05:55:59,0.013,0.0,0.003,0.0
07/09/2023,05:57:00,0.014,0.0,0.003,0.0
07/09/2023,05:58:00,0.014,0.0,0.003,0.0
07/09/2023,05:59:00,0.015,0.0,0.003,0.0
07/09/2023,05:59:59,0.016,0.0,0.004,0.001
07/09/2023,06:01:00,0.016,0.0,0.004,0.0
07/09/2023,06:01:59,0.017,0.0,0.004,0.0
07/09/2023,06:02:59,0.017,0.0,0.005,0.001
07/09/2023,06:04:00,0.019,0.0,0.005,0.0
07/09/2023,06:05:00,0.019,0.0,0.005,0.0
07/09/2023,06:05:59,0.019,0.0,0.005,0.0
07/09/2023,06:07:00,0.020,0.0,0.006,0.001
07/09/2023,06:07:59,0.021,0.0,0.006,0.0
07/09/2023,06:09:00,0.022,0.0,0.007,0.001
07/09/2023,06:10:00,0.023,0.0,0.007,0.0
07/09/2023,06:11:00,0.023,0.0,0.007,0.0
07/09/2023,06:11:59,0.025,0.0,0.008,0.001
07/09/2023,06:13:00,0.025,0.0,0.008,0.0
07/09/2023,06:14:00,0.027,0.0,0.009,0.001
07/09/2023,06:14:59,0.027,0.0,0.009,0.0
07/09/2023,06:16:00,0.028,0.0,0.009,0.0
07/09/2023,06:16:59,0.029,0.0,0.01,0.001
07/09/2023,06:18:00,0.029,0.0,0.01,0.0
07/09/2023,06:19:00,0.030,0.0,0.011,0.001
07/09/2023,06:20:00,0.031,0.0,0.011,0.0
07/09/2023,06:21:00,0.032,0.0,0.012,0.001
07/09/2023,06:22:00,0.034,0.0,0.012,0.0
07/09/2023,06:23:00,0.035,0.0,0.013,0.001
07/09/2023,06:24:00,0.036,0.0,0.014,0.001
07/09/2023,06:25:00,0.036,0.0,0.014,0.0
07/09/2023,06:25:59,0.037,0.0,0.015,0.001
07/09/2023,06:27:00,0.039,0.0,0.015,0.0
07/09/2023,06:28:00,0.040,0.0,0.016,0.001
07/09/2023,06:29:00,0.042,0.0,0.017,0.001
07/09/2023,06:30:02,0.041,0.0,0.018,0.001
07/09/2023,06:30:59,0.043,0.0,0.018,0.0
07/09/2023,06:31:59,0.045,0.0,0.019,0.001
07/09/2023,06:33:00,0.046,0.0,0.02,0.001
07/09/2023,06:33:59,0.047,0.0,0.02,0.0
07/09/2023,06:35:00,0.049,0.0,0.021,0.001
07/09/2023,06:35:59,0.051,0.0,0.022,0.001
07/09/2023,06:37:00,0.052,0.0,0.023,0.001
07/09/2023,06:37:59,0.054,0.0,0.024,0.001
07/09/2023,06:39:00,0.055,0.0,0.025,0.001
07/09/2023,06:39:59,0.057,0.0,0.026,0.001
07/09/2023,06:40:59,0.058,0.0,0.027,0.001
07/09/2023,06:42:00,0.061,0.0,0.028,0.001
07/09/2023,06:42:59,0.062,0.0,0.029,0.001
07/09/2023,06:43:59,0.065,0.0,0.03,0.001
07/09/2023,06:44:59,0.066,0.0,0.031,0.001
07/09/2023,06:45:59,0.067,0.0,0.032,0.001
07/09/2023,06:46:59,0.069,0.0,0.033,0.001
07/09/2023,06:48:00,0.071,0.0,0.034,0.001
07/09/2023,06:48:59,0.074,0.0,0.035,0.001
07/09/2023,06:50:00,0.075,0.0,0.037,0.002
07/09/2023,06:51:00,0.078,0.0,0.038,0.001
07/09/2023,06:52:00,0.080,0.0,0.039,0.001
07/09/2023,06:52:59,0.083,0.0,0.041,0.002
07/09/2023,06:54:00,0.085,0.0,0.042,0.001
07/09/2023,06:54:59,0.087,0.0,0.044,0.002
07/09/2023,06:56:00,0.090,0.0,0.045,0.001
07/09/2023,06:57:00,0.092,0.0,0.046,0.001
07/09/2023,06:58:00,0.093,0.0,0.048,0.002
07/09/2023,06:58:59,0.096,0.0,0.05,0.002
07/09/2023,06:59:59,0.098,0.0,0.051,0.001
07/09/2023,07:00:59,0.099,0.0,0.053,0.002
07/09/2023,07:02:00,0.102,0.0,0.055,0.002
07/09/2023,07:03:00,0.106,0.0,0.056,0.001
07/09/2023,07:04:00,0.109,0.0,0.058,0.002
07/09/2023,07:05:00,0.112,0.0,0.06,0.002
07/09/2023,07:05:59,0.116,0.0,0.062,0.002
07/09/2023,07:06:59,0.118,0.0,0.064,0.002
07/09/2023,07:08:00,0.121,0.0,0.066,0.002
07/09/2023,07:08:59,0.122,0.0,0.068,0.002
07/09/2023,07:10:00,0.125,0.0,0.07,0.002
07/09/2023,07:11:00,0.132,0.0,0.072,0.002
07/09/2023,07:12:00,0.136,0.0,0.074,0.002
07/09/2023,07:12:59,0.137,0.0,0.076,0.002
07/09/2023,07:14:00,0.142,0.0,0.079,0.003
07/09/2023,07:14:59,0.143,0.0,0.081,0.002
07/09/2023,07:15:58,0.146,0.0,0.084,0.003
07/09/2023,07:16:59,0.150,0.0,0.086,0.002
07/09/2023,07:18:00,0.153,0.0,0.089,0.003
07/09/2023,07:19:00,0.155,0.0,0.091,0.002
07/09/2023,07:20:00,0.159,0.0,0.094,0.003
07/09/2023,07:20:59,0.163,0.0,0.097,0.003
07/09/2023,07:22:00,0.167,0.0,0.099,0.002
07/09/2023,07:22:59,0.171,0.0,0.102,0.003
07/09/2023,07:23:59,0.175,0.0,0.105,0.003
07/09/2023,07:25:00,0.178,0.0,0.108,0.003
07/09/2023,07:26:00,0.179,0.0,0.111,0.003
07/09/2023,07:26:59,0.181,0.0,0.114,0.003
07/09/2023,07:28:00,0.189,0.0,0.117,0.003
07/09/2023,07:29:00,0.194,0.0,0.12,0.003
07/09/2023,07:30:00,0.198,0.0,0.123,0.003
07/09/2023,07:30:59,0.201,0.0,0.127,0.004
07/09/2023,07:32:00,0.204,0.0,0.13,0.003
07/09/2023,07:32:59,0.209,0.0,0.134,0.004
07/09/2023,07:34:00,0.215,0.0,0.137,0.003
07/09/2023,07:35:00,0.219,1.0,0.141,0.004
07/09/2023,07:35:59,0.224,1.0,0.144,0.003
07/09/2023,07:36:59,0.229,1.0,0.148,0.004
07/09/2023,07:37:59,0.234,1.0,0.152,0.004
07/09/2023,07:38:58,0.239,1.0,0.156,0.004
07/09/2023,07:39:58,0.244,1.0,0.16,0.004
07/09/2023,07:41:00,0.250,1.0,0.164,0.004
07/09/2023,07:42:00,0.254,1.0,0.168,0.004
07/09/2023,07:42:59,0.259,1.0,0.173,0.005
07/09/2023,07:44:00,0.263,1.0,0.177,0.004
07/09/2023,07:44:59,0.268,1.0,0.181,0.004
07/09/2023,07:45:59,0.272,1.0,0.186,0.005
07/09/2023,07:47:00,0.277,1.0,0.191,0.005
07/09/2023,07:48:00,0.281,1.0,0.195,0.004
07/09/2023,07:49:00,0.284,1.0,0.2,0.005
07/09/2023,07:49:59,0.289,1.0,0.205,0.005
07/09/2023,07:50:58,0.292,1.0,0.209,0.004
07/09/2023,07:51:58,0.297,1.0,0.214,0.005
07/09/2023,07:53:00,0.301,1.0,0.219,0.005
07/09/2023,07:54:00,0.308,1.0,0.224,0.005
07/09/2023,07:55:00,0.312,1.0,0.23,0.006
07/09/2023,07:56:00,0.317,1.0,0.235,0.005
07/09/2023,07:57:00,0.314,1.0,0.24,0.005
07/09/2023,07:58:00,0.328,1.0,0.245,0.005
07/09/2023,07:59:00,0.332,1.0,0.251,0.006
07/09/2023,08:00:00,0.338,1.0,0.256,0.005
07/09/2023,08:01:00,0.344,1.0,0.262,0.006
07/09/2023,08:01:58,0.348,1.0,0.268,0.006
07/09/2023,08:02:58,0.355,1.0,0.274,0.006
07/09/2023,08:04:00,0.361,1.0,0.28,0.006
07/09/2023,08:05:00,0.366,1.0,0.286,0.006
07/09/2023,08:06:00,0.371,1.0,0.292,0.006
07/09/2023,08:07:00,0.379,1.0,0.298,0.006
07/09/2023,08:08:00,0.381,1.0,0.305,0.007
07/09/2023,08:08:59,0.388,1.0,0.311,0.006
07/09/2023,08:10:00,0.395,1.0,0.317,0.006
07/09/2023,08:11:00,0.401,1.0,0.324,0.007
07/09/2023,08:12:00,0.406,1.0,0.331,0.007
07/09/2023,08:13:00,0.414,1.0,0.338,0.007
07/09/2023,08:13:59,0.420,1.0,0.345,0.007
07/09/2023,08:15:00,0.428,1.0,0.352,0.007
07/09/2023,08:16:00,0.434,1.0,0.359,0.007
07/09/2023,08:17:00,0.442,1.0,0.366,0.007
07/09/2023,08:17:59,0.449,1.0,0.374,0.008
07/09/2023,08:18:59,0.456,1.0,0.381,0.007
07/09/2023,08:20:00,0.461,1.0,0.389,0.008
07/09/2023,08:21:00,0.464,1.0,0.396,0.007
07/09/2023,08:22:00,0.471,1.0,0.404,0.008
07/09/2023,08:23:00,0.475,1.0,0.412,0.008
07/09/2023,08:23:58,0.478,1.0,0.42,0.008
07/09/2023,08:24:58,0.484,1.0,0.428,0.008
07/09/2023,08:26:00,0.491,1.0,0.436,0.008
07/09/2023,08:26:59,0.495,1.0,0.444,0.008
07/09/2023,08:28:00,0.498,1.0,0.453,0.009
07/09/2023,08:29:00,0.504,1.0,0.461,0.008
07/09/2023,08:30:29,0.514,1.0,0.474,0.013
07/09/2023,08:32:00,0.523,1.0,0.487,0.013
07/09/2023,08:33:01,0.530,1.0,0.496,0.009
07/09/2023,08:34:00,0.539,1.0,0.504,0.008
07/09/2023,08:35:00,0.548,1.0,0.514,0.01
07/09/2023,08:35:59,0.553,1.0,0.523,0.009
07/09/2023,08:37:00,0.562,1.0,0.532,0.009
07/09/2023,08:37:58,0.570,1.0,0.541,0.009
07/09/2023,08:38:58,0.577,1.0,0.551,0.01
07/09/2023,08:40:00,0.583,1.0,0.561,0.01
07/09/2023,08:41:00,0.590,1.0,0.57,0.009
07/09/2023,08:42:00,0.600,1.0,0.58,0.01
07/09/2023,08:43:00,0.607,1.0,0.59,0.01
07/09/2023,08:44:00,0.614,1.0,0.601,0.011
07/09/2023,08:45:00,0.622,1.0,0.611,0.01
07/09/2023,08:46:00,0.626,1.0,0.621,0.01
07/09/2023,08:47:00,0.631,1.0,0.632,0.011
07/09/2023,08:47:59,0.640,1.0,0.642,0.01
07/09/2023,08:49:00,0.642,1.0,0.653,0.011
07/09/2023,08:50:00,0.652,2.0,0.664,0.011
07/09/2023,08:51:00,0.654,2.0,0.675,0.011
07/09/2023,08:52:00,0.661,2.0,0.686,0.011
07/09/2023,08:53:00,0.664,2.0,0.697,0.011
07/09/2023,08:53:59,0.673,2.0,0.708,0.011
07/09/2023,08:55:00,0.683,2.0,0.719,0.011
07/09/2023,08:56:00,0.688,2.0,0.731,0.012
07/09/2023,08:57:00,0.698,2.0,0.742,0.011
07/09/2023,08:58:00,0.703,2.0,0.754,0.012
07/09/2023,08:59:00,0.712,2.0,0.766,0.012
07/09/2023,08:59:59,0.723,2.0,0.778,0.012
07/09/2023,09:01:00,0.732,2.0,0.79,0.012
07/09/2023,09:02:00,0.740,2.0,0.802,0.012
07/09/2023,09:03:00,0.745,2.0,0.814,0.012
07/09/2023,09:04:02,0.753,2.0,0.827,0.013
07/09/2023,09:05:00,0.758,2.0,0.839,0.012
07/09/2023,09:06:00,0.766,2.0,0.852,0.013
07/09/2023,09:07:00,0.773,2.0,0.865,0.013
07/09/2023,09:08:00,0.778,2.0,0.878,0.013
07/09/2023,09:09:00,0.784,2.0,0.891,0.013
07/09/2023,09:10:00,0.794,2.0,0.904,0.013
07/09/2023,09:11:00,0.801,2.0,0.917,0.013
07/09/2023,09:12:00,0.809,2.0,0.931,0.014
07/09/2023,09:13:00,0.816,2.0,0.944,0.013
07/09/2023,09:14:00,0.824,2.0,0.958,0.014
07/09/2023,09:14:59,0.834,2.0,0.972,0.014
07/09/2023,09:16:00,0.843,2.0,0.986,0.014
07/09/2023,09:17:00,0.844,2.0,1.0,0.014
07/09/2023,09:18:00,0.851,2.0,1.014,0.014
07/09/2023,09:18:59,0.862,2.0,1.028,0.014
07/09/2023,09:19:59,0.874,2.0,1.043,0.015
07/09/2023,09:21:00,0.874,2.0,1.057,0.014
07/09/2023,09:22:00,0.884,2.0,1.072,0.015
07/09/2023,09:23:00,0.896,2.0,1.087,0.015
07/09/2023,09:23:58,0.900,2.0,1.101,0.014
07/09/2023,09:24:58,0.902,2.0,1.116,0.015
07/09/2023,09:26:01,0.913,2.0,1.132,0.016
07/09/2023,09:27:00,0.924,2.0,1.147,0.015
07/09/2023,09:28:00,0.930,2.0,1.162,0.015
07/09/2023,09:29:00,0.930,2.0,1.178,0.016
07/09/2023,09:29:58,0.944,2.0,1.193,0.015
07/09/2023,09:30:58,0.948,2.0,1.209,0.016
07/09/2023,09:32:00,0.963,2.0,1.225,0.016
07/09/2023,09:33:00,0.963,2.0,1.241,0.016
07/09/2023,09:34:00,0.972,2.0,1.257,0.016
07/09/2023,09:35:00,0.976,2.0,1.274,0.017
07/09/2023,09:36:00,0.978,2.0,1.29,0.016
07/09/2023,09:37:00,0.993,2.0,1.306,0.016
07/09/2023,09:38:00,0.998,2.0,1.323,0.017
07/09/2023,09:39:00,1.006,2.0,1.34,0.017
07/09/2023,09:40:00,1.005,2.0,1.356,0.016
07/09/2023,09:41:04,1.016,2.0,1.374,0.018
07/09/2023,09:42:01,1.033,2.0,1.39,0.016
07/09/2023,09:43:00,1.021,2.0,1.407,0.017
07/09/2023,09:44:00,1.033,2.0,1.424,0.017
07/09/2023,09:45:00,1.027,2.0,1.442,0.018
07/09/2023,09:46:00,1.046,2.0,1.459,0.017
07/09/2023,09:47:00,1.055,2.0,1.476,0.017
07/09/2023,09:48:00,1.053,2.0,1.494,0.018
07/09/2023,09:49:00,1.065,2.0,1.512,0.018
07/09/2023,09:50:00,1.074,2.0,1.529,0.017
07/09/2023,09:51:00,1.078,2.0,1.547,0.018
07/09/2023,09:52:00,1.100,3.0,1.565,0.018
07/09/2023,09:53:00,1.098,3.0,1.584,0.019
07/09/2023,09:54:00,1.112,3.0,1.602,0.018
07/09/2023,09:55:00,1.114,3.0,1.621,0.019
07/09/2023,09:56:00,1.119,3.0,1.639,0.018
07/09/2023,09:57:00,1.128,3.0,1.658,0.019
07/09/2023,09:58:00,1.134,3.0,1.677,0.019
07/09/2023,09:59:00,1.136,3.0,1.696,0.019
07/09/2023,10:00:00,1.147,3.0,1.715,0.019
07/09/2023,10:00:58,1.158,3.0,1.733,0.018
07/09/2023,10:01:58,1.152,3.0,1.753,0.02
07/09/2023,10:02:59,1.161,3.0,1.773,0.02
07/09/2023,10:04:22,1.172,3.0,1.799,0.026